| time (UTC) | temp F | wind direction | speed MPH | gust MPH | rain 1hr in | rain 24hr in | rain mn in | humidity % | barometer mb |
| 20260906050003 | 78 | 209 | 5.0 | 10.0 | 0.00 | 0.00 | 0.00 | 38 | 1023.1 |
| 20260906045503 | 78 | 207 | 6.0 | 10.0 | 0.00 | 0.00 | 0.00 | 38 | 1023.0 |
| 20260906045006 | 78 | 213 | 5.0 | 9.0 | 0.00 | 0.00 | 0.00 | 38 | 1023.0 |
| 20260906044504 | 78 | 221 | 5.0 | 9.0 | 0.00 | 0.00 | 0.00 | 38 | 1023.0 |
| 20260906044004 | 78 | 250 | 6.0 | 10.0 | 0.00 | 0.00 | 0.00 | 38 | 1023.0 |
| 20260906043504 | 78 | 237 | 4.0 | 10.0 | 0.00 | 0.00 | 0.00 | 38 | 1022.9 |
| 20260906043003 | 78 | 221 | 2.0 | 5.0 | 0.00 | 0.00 | 0.00 | 38 | 1023.0 |
| 20260906042503 | 78 | 232 | 4.0 | 8.0 | 0.00 | 0.00 | 0.00 | 39 | 1022.9 |
| 20260906042003 | 78 | 227 | 2.0 | 8.0 | 0.00 | 0.00 | 0.00 | 39 | 1022.8 |
| 20260906041503 | 78 | 204 | 2.0 | 6.0 | 0.00 | 0.00 | 0.00 | 38 | 1022.8 |
| 20260906040003 | 79 | 240 | 4.0 | 9.0 | 0.00 | 0.00 | 0.00 | 38 | 1022.6 |
| 20260906035503 | 79 | 237 | 4.0 | 12.0 | 0.00 | 0.00 | 0.00 | 38 | 1022.6 |
| 20260906035003 | 79 | 239 | 7.0 | 12.0 | 0.00 | 0.00 | 0.00 | 38 | 1022.6 |
| 20260906034503 | 79 | 230 | 6.0 | 10.0 | 0.00 | 0.00 | 0.00 | 38 | 1022.4 |
| 20260906034003 | 79 | 238 | 4.0 | 12.0 | 0.00 | 0.00 | 0.00 | 38 | 1022.4 |
| 20260906033004 | 79 | 230 | 6.0 | 13.0 | 0.00 | 0.00 | 0.00 | 38 | 1022.2 |
| 20260906032503 | 80 | 218 | 6.0 | 10.0 | 0.00 | 0.00 | 0.00 | 38 | 1022.1 |
| 20260906032003 | 80 | 219 | 9.0 | 15.0 | 0.00 | 0.00 | 0.00 | 38 | 1022.1 |
| 20260906031504 | 80 | 214 | 9.0 | 13.0 | 0.00 | 0.00 | 0.00 | 38 | 1022.1 |
| 20260906031003 | 80 | 218 | 7.0 | 14.0 | 0.00 | 0.00 | 0.00 | 38 | 1022.1 |
| 20260906030503 | 80 | 220 | 9.0 | 16.0 | 0.00 | 0.00 | 0.00 | 38 | 1022.1 |
| 20260906030003 | 80 | 207 | 9.0 | 12.0 | 0.00 | 0.00 | 0.00 | 38 | 1022.1 |
| 20260906025503 | 80 | 236 | 7.0 | 13.0 | 0.00 | 0.00 | 0.00 | 38 | 1022.1 |
| 20260906025003 | 80 | 224 | 7.0 | 14.0 | 0.00 | 0.00 | 0.00 | 38 | 1021.9 |
| 20260906024503 | 80 | 219 | 8.0 | 14.0 | 0.00 | 0.00 | 0.00 | 38 | 1022.0 |
| 20260906024004 | 80 | 231 | 10.0 | 18.0 | 0.00 | 0.00 | 0.00 | 37 | 1021.9 |
| 20260906023504 | 80 | 228 | 10.0 | 17.0 | 0.00 | 0.00 | 0.00 | 37 | 1021.8 |
| 20260906023004 | 81 | 214 | 11.0 | 18.0 | 0.00 | 0.00 | 0.00 | 37 | 1021.9 |
| 20260906022503 | 81 | 220 | 10.0 | 17.0 | 0.00 | 0.00 | 0.00 | 37 | 1021.9 |
| 20260906022004 | 81 | 222 | 8.0 | 13.0 | 0.00 | 0.00 | 0.00 | 37 | 1021.9 |
| 20260906021503 | 81 | 225 | 7.0 | 20.0 | 0.00 | 0.00 | 0.00 | 36 | 1022.0 |
| 20260906021004 | 81 | 216 | 10.0 | 17.0 | 0.00 | 0.00 | 0.00 | 36 | 1022.0 |
| 20260906020503 | 82 | 239 | 7.0 | 14.0 | 0.00 | 0.00 | 0.00 | 35 | 1022.0 |
| 20260906020003 | 82 | 212 | 9.0 | 16.0 | 0.00 | 0.00 | 0.00 | 35 | 1021.9 |
| 20260906015503 | 82 | 216 | 10.0 | 16.0 | 0.00 | 0.00 | 0.00 | 34 | 1021.9 |
| 20260906015004 | 83 | 214 | 8.0 | 15.0 | 0.00 | 0.00 | 0.00 | 34 | 1021.9 |
| 20260906014004 | 83 | 209 | 10.0 | 15.0 | 0.00 | 0.00 | 0.00 | 33 | 1021.8 |
| 20260906013503 | 84 | 209 | 11.0 | 18.0 | 0.00 | 0.00 | 0.00 | 32 | 1021.9 |
| 20260906013004 | 84 | 203 | 8.0 | 16.0 | 0.00 | 0.00 | 0.00 | 32 | 1021.9 |
| 20260906012503 | 84 | 219 | 10.0 | 16.0 | 0.00 | 0.00 | 0.00 | 32 | 1021.8 |
| 20260906012003 | 84 | 195 | 7.0 | 13.0 | 0.00 | 0.00 | 0.00 | 32 | 1021.9 |
| 20260906011503 | 85 | 189 | 10.0 | 15.0 | 0.00 | 0.00 | 0.00 | 31 | 1021.9 |
| 20260906010504 | 85 | 215 | 8.0 | 13.0 | 0.00 | 0.00 | 0.00 | 32 | 1021.9 |
| 20260906005504 | 85 | 221 | 10.0 | 16.0 | 0.00 | 0.00 | 0.00 | 31 | 1022.0 |
| 20260906005003 | 85 | 224 | 12.0 | 16.0 | 0.00 | 0.00 | 0.00 | 32 | 1021.9 |
| 20260906004503 | 85 | 200 | 10.0 | 15.0 | 0.00 | 0.00 | 0.00 | 31 | 1022.0 |
| 20260906004003 | 85 | 202 | 12.0 | 20.0 | 0.00 | 0.00 | 0.00 | 31 | 1021.9 |
| 20260906003504 | 85 | 214 | 11.0 | 16.0 | 0.00 | 0.00 | 0.00 | 31 | 1021.9 |
| 20260906003003 | 85 | 221 | 11.0 | 17.0 | 0.00 | 0.00 | 0.00 | 31 | 1021.9 |
| 20260906002504 | 86 | 197 | 14.0 | 20.0 | 0.00 | 0.00 | 0.00 | 30 | 1021.7 |
| 20260906002004 | 86 | 220 | 9.0 | 14.0 | 0.00 | 0.00 | 0.00 | 31 | 1021.9 |
| 20260906001004 | 87 | 224 | 10.0 | 20.0 | 0.00 | 0.00 | 0.00 | 31 | 1022.0 |
| 20260905234504 | 86 | 205 | 11.0 | 20.0 | 0.00 | 0.00 | 0.00 | 31 | 1022.0 |
| 20260905234004 | 86 | 201 | 14.0 | 20.0 | 0.00 | 0.00 | 0.00 | 30 | 1022.1 |
| 20260905232503 | 86 | 190 | 12.0 | 20.0 | 0.00 | 0.00 | 0.00 | 32 | 1022.3 |
| 20260905232003 | 87 | 202 | 15.0 | 25.0 | 0.00 | 0.00 | 0.00 | 33 | 1022.0 |
| 20260905231503 | 87 | 205 | 11.0 | 20.0 | 0.00 | 0.00 | 0.00 | 32 | 1022.1 |
| 20260905230503 | 88 | 194 | 13.0 | 21.0 | 0.00 | 0.00 | 0.00 | 29 | 1021.9 |
| 20260905225503 | 89 | 203 | 17.0 | 26.0 | 0.00 | 0.00 | 0.00 | 29 | 1022.1 |
| 20260905225006 | 89 | 207 | 12.0 | 22.0 | 0.00 | 0.00 | 0.00 | 29 | 1022.0 |
| 20260905224504 | 90 | 199 | 16.0 | 24.0 | 0.00 | 0.00 | 0.00 | 28 | 1021.9 |
| 20260905224004 | 90 | 195 | 11.0 | 24.0 | 0.00 | 0.00 | 0.00 | 28 | 1022.1 |
| 20260905223504 | 89 | 227 | 13.0 | 24.0 | 0.00 | 0.00 | 0.00 | 29 | 1022.0 |
| 20260905223004 | 89 | 214 | 16.0 | 25.0 | 0.00 | 0.00 | 0.00 | 28 | 1022.0 |
| 20260905222503 | 90 | 205 | 16.0 | 21.0 | 0.00 | 0.00 | 0.00 | 26 | 1022.1 |
| 20260905222004 | 89 | 203 | 12.0 | 20.0 | 0.00 | 0.00 | 0.00 | 27 | 1022.1 |
| 20260905221504 | 88 | 201 | 13.0 | 24.0 | 0.00 | 0.00 | 0.00 | 28 | 1022.3 |
| 20260905221004 | 89 | 194 | 17.0 | 24.0 | 0.00 | 0.00 | 0.00 | 27 | 1022.2 |
| 20260905220003 | 89 | 196 | 14.0 | 21.0 | 0.00 | 0.00 | 0.00 | 28 | 1022.3 |
| 20260905215504 | 90 | 205 | 14.0 | 25.0 | 0.00 | 0.00 | 0.00 | 27 | 1022.4 |
| 20260905214503 | 87 | 194 | 16.0 | 28.0 | 0.00 | 0.00 | 0.00 | 29 | 1022.4 |
| 20260905214004 | 89 | 191 | 17.0 | 26.0 | 0.00 | 0.00 | 0.00 | 28 | 1022.5 |
| 20260905213503 | 90 | 200 | 16.0 | 26.0 | 0.00 | 0.00 | 0.00 | 27 | 1022.5 |
| 20260905212503 | 89 | 204 | 17.0 | 28.0 | 0.00 | 0.00 | 0.00 | 28 | 1022.6 |
| 20260905212003 | 88 | 198 | 16.0 | 26.0 | 0.00 | 0.00 | 0.00 | 28 | 1022.6 |
| 20260905211003 | 89 | 203 | 17.0 | 25.0 | 0.00 | 0.00 | 0.00 | 27 | 1022.5 |
| 20260905210503 | 90 | 200 | 17.0 | 28.0 | 0.00 | 0.00 | 0.00 | 27 | 1022.5 |
| 20260905210003 | 90 | 196 | 16.0 | 24.0 | 0.00 | 0.00 | 0.00 | 27 | 1022.5 |
| 20260905205503 | 89 | 196 | 18.0 | 29.0 | 0.00 | 0.00 | 0.00 | 26 | 1022.5 |
| 20260905205007 | 89 | 200 | 17.0 | 24.0 | 0.00 | 0.00 | 0.00 | 27 | 1022.5 |
| 20260905204004 | 89 | 189 | 18.0 | 26.0 | 0.00 | 0.00 | 0.00 | 27 | 1022.5 |
| 20260905203504 | 89 | 206 | 16.0 | 26.0 | 0.00 | 0.00 | 0.00 | 27 | 1022.6 |
| 20260905203004 | 89 | 201 | 18.0 | 26.0 | 0.00 | 0.00 | 0.00 | 27 | 1022.5 |
| 20260905202503 | 89 | 189 | 18.0 | 26.0 | 0.00 | 0.00 | 0.00 | 27 | 1022.6 |
| 20260905202003 | 89 | 209 | 16.0 | 25.0 | 0.00 | 0.00 | 0.00 | 27 | 1022.7 |
| 20260905201503 | 89 | 189 | 15.0 | 26.0 | 0.00 | 0.00 | 0.00 | 28 | 1022.8 |
| 20260905201003 | 89 | 194 | 13.0 | 23.0 | 0.00 | 0.00 | 0.00 | 28 | 1022.6 |
| 20260905200503 | 88 | 203 | 18.0 | 25.0 | 0.00 | 0.00 | 0.00 | 28 | 1022.8 |
| 20260905195504 | 88 | 206 | 14.0 | 21.0 | 0.00 | 0.00 | 0.00 | 29 | 1023.0 |
| 20260905195004 | 89 | 210 | 16.0 | 24.0 | 0.00 | 0.00 | 0.00 | 29 | 1023.3 |
| 20260905194503 | 88 | 192 | 16.0 | 24.0 | 0.00 | 0.00 | 0.00 | 30 | 1023.2 |
| 20260905194004 | 88 | 195 | 17.0 | 25.0 | 0.00 | 0.00 | 0.00 | 30 | 1023.2 |
| 20260905193004 | 88 | 191 | 17.0 | 29.0 | 0.00 | 0.00 | 0.00 | 30 | 1023.4 |
| 20260905192003 | 88 | 210 | 13.0 | 30.0 | 0.00 | 0.00 | 0.00 | 29 | 1023.5 |
| 20260905191503 | 87 | 189 | 15.0 | 25.0 | 0.00 | 0.00 | 0.00 | 28 | 1023.6 |
| 20260905191004 | 88 | 182 | 14.0 | 23.0 | 0.00 | 0.00 | 0.00 | 27 | 1023.7 |
| 20260905190503 | 87 | 187 | 18.0 | 29.0 | 0.00 | 0.00 | 0.00 | 27 | 1023.6 |
| 20260905190004 | 87 | 198 | 16.0 | 28.0 | 0.00 | 0.00 | 0.00 | 27 | 1023.7 |
| 20260905185504 | 87 | 194 | 16.0 | 25.0 | 0.00 | 0.00 | 0.00 | 28 | 1023.6 |
| 20260905185004 | 87 | 184 | 18.0 | 25.0 | 0.00 | 0.00 | 0.00 | 25 | 1023.7 |
| 20260905184503 | 87 | 186 | 17.0 | 26.0 | 0.00 | 0.00 | 0.00 | 25 | 1023.8 |
| 20260905184004 | 87 | 198 | 14.0 | 24.0 | 0.00 | 0.00 | 0.00 | 26 | 1023.7 |
| 20260905183504 | 87 | 199 | 18.0 | 26.0 | 0.00 | 0.00 | 0.00 | 22 | 1023.6 |
| 20260905183004 | 86 | 182 | 18.0 | 29.0 | 0.00 | 0.00 | 0.00 | 23 | 1023.8 |
| 20260905182504 | 86 | 178 | 18.0 | 28.0 | 0.00 | 0.00 | 0.00 | 23 | 1024.0 |
| 20260905182003 | 87 | 200 | 17.0 | 25.0 | 0.00 | 0.00 | 0.00 | 22 | 1023.9 |
| 20260905181504 | 86 | 188 | 16.0 | 23.0 | 0.00 | 0.00 | 0.00 | 20 | 1024.0 |
| 20260905181003 | 86 | 198 | 16.0 | 23.0 | 0.00 | 0.00 | 0.00 | 22 | 1024.0 |
| 20260905180504 | 86 | 186 | 17.0 | 29.0 | 0.00 | 0.00 | 0.00 | 23 | 1023.9 |
| 20260905180004 | 86 | 179 | 17.0 | 26.0 | 0.00 | 0.00 | 0.00 | 20 | 1023.8 |
| 20260905175003 | 85 | 173 | 20.0 | 29.0 | 0.00 | 0.00 | 0.00 | 21 | 1023.8 |
| 20260905174504 | 86 | 184 | 16.0 | 25.0 | 0.00 | 0.00 | 0.00 | 20 | 1023.8 |
| 20260905174004 | 85 | 184 | 17.0 | 29.0 | 0.00 | 0.00 | 0.00 | 20 | 1023.7 |
| 20260905173004 | 85 | 169 | 18.0 | 26.0 | 0.00 | 0.00 | 0.00 | 18 | 1023.5 |
| 20260905172503 | 85 | 175 | 18.0 | 30.0 | 0.00 | 0.00 | 0.00 | 16 | 1023.6 |
| 20260905172003 | 85 | 192 | 15.0 | 28.0 | 0.00 | 0.00 | 0.00 | 15 | 1023.5 |
| 20260905171503 | 85 | 190 | 16.0 | 26.0 | 0.00 | 0.00 | 0.00 | 15 | 1023.5 |
| 20260905170503 | 85 | 190 | 15.0 | 22.0 | 0.00 | 0.00 | 0.00 | 11 | 1023.3 |
| 20260905170003 | 85 | 187 | 14.0 | 23.0 | 0.00 | 0.00 | 0.00 | 11 | 1023.3 |
| 20260905165003 | 84 | 189 | 10.0 | 17.0 | 0.00 | 0.00 | 0.00 | 9 | 1023.4 |
| 20260905164503 | 84 | 193 | 10.0 | 16.0 | 0.00 | 0.00 | 0.00 | 9 | 1023.5 |
| 20260905164003 | 83 | 215 | 10.0 | 20.0 | 0.00 | 0.00 | 0.00 | 10 | 1023.4 |
| 20260905163503 | 83 | 209 | 6.0 | 15.0 | 0.00 | 0.00 | 0.00 | 11 | 1023.5 |
| 20260905163003 | 81 | 216 | 6.0 | 12.0 | 0.00 | 0.00 | 0.00 | 11 | 1023.5 |
| 20260905162504 | 79 | 123 | 4.0 | 12.0 | 0.00 | 0.00 | 0.00 | 21 | 1023.5 |
| 20260905162004 | 79 | 33 | 0.0 | 3.0 | 0.00 | 0.00 | 0.00 | 22 | 1023.6 |
| 20260905161004 | 78 | 35 | 0.0 | 1.0 | 0.00 | 0.00 | 0.00 | 22 | 1023.5 |
| 20260905160504 | 77 | 75 | 0.0 | 2.0 | 0.00 | 0.00 | 0.00 | 24 | 1023.4 |
| 20260905160003 | 76 | 39 | 1.0 | 3.0 | 0.00 | 0.00 | 0.00 | 24 | 1023.5 |
| 20260905155504 | 76 | 22 | 2.0 | 5.0 | 0.00 | 0.00 | 0.00 | 26 | 1023.4 |
| 20260905155004 | 76 | 33 | 2.0 | 5.0 | 0.00 | 0.00 | 0.00 | 27 | 1023.4 |
| 20260905154503 | 76 | 44 | 2.0 | 8.0 | 0.00 | 0.00 | 0.00 | 27 | 1023.5 |
| 20260905154003 | 76 | 29 | 1.0 | 3.0 | 0.00 | 0.00 | 0.00 | 26 | 1023.5 |
| 20260905153003 | 75 | 37 | 0.0 | 1.0 | 0.00 | 0.00 | 0.00 | 27 | 1023.5 |
| 20260905152504 | 75 | 28 | 0.0 | 0.0 | 0.00 | 0.00 | 0.00 | 27 | 1023.5 |
| 20260905152004 | 75 | 265 | 0.0 | 0.0 | 0.00 | 0.00 | 0.00 | 26 | 1023.5 |
| 20260905151503 | 75 | 247 | 0.0 | 0.0 | 0.00 | 0.00 | 0.00 | 26 | 1023.5 |
| 20260905151004 | 74 | 229 | 0.0 | 0.0 | 0.00 | 0.00 | 0.00 | 26 | 1023.5 |
| 20260905150503 | 73 | 229 | 0.0 | 0.0 | 0.00 | 0.00 | 0.00 | 27 | 1023.5 |
| 20260905150003 | 72 | 229 | 0.0 | 0.0 | 0.00 | 0.00 | 0.00 | 26 | 1023.3 |
| 20260905145504 | 71 | 229 | 0.0 | 0.0 | 0.00 | 0.00 | 0.00 | 25 | 1023.3 |
| 20260905145005 | 71 | 229 | 0.0 | 0.0 | 0.00 | 0.00 | 0.00 | 25 | 1023.2 |
| 20260905144503 | 70 | 229 | 0.0 | 0.0 | 0.00 | 0.00 | 0.00 | 26 | 1023.3 |
| 20260905144004 | 70 | 229 | 0.0 | 0.0 | 0.00 | 0.00 | 0.00 | 26 | 1023.2 |
| 20260905143503 | 70 | 229 | 0.0 | 0.0 | 0.00 | 0.00 | 0.00 | 26 | 1023.2 |
| 20260905143004 | 69 | 224 | 0.0 | 0.0 | 0.00 | 0.00 | 0.00 | 29 | 1023.3 |
| 20260905142503 | 68 | 223 | 0.0 | 2.0 | 0.00 | 0.00 | 0.00 | 30 | 1023.2 |
| 20260905142003 | 67 | 209 | 0.0 | 0.0 | 0.00 | 0.00 | 0.00 | 33 | 1023.1 |
| 20260905141004 | 65 | 221 | 0.0 | 0.0 | 0.00 | 0.00 | 0.00 | 32 | 1023.0 |
| 20260905140504 | 64 | 221 | 0.0 | 0.0 | 0.00 | 0.00 | 0.00 | 33 | 1023.1 |
| 20260905140003 | 63 | 227 | 0.0 | 0.0 | 0.00 | 0.00 | 0.00 | 35 | 1023.1 |
| 20260905135504 | 62 | 227 | 0.0 | 0.0 | 0.00 | 0.00 | 0.00 | 36 | 1022.7 |
| 20260905135005 | 62 | 227 | 0.0 | 0.0 | 0.00 | 0.00 | 0.00 | 37 | 1022.6 |
| 20260905134503 | 61 | 227 | 0.0 | 0.0 | 0.00 | 0.00 | 0.00 | 37 | 1022.6 |
| 20260905134003 | 61 | 227 | 0.0 | 0.0 | 0.00 | 0.00 | 0.00 | 37 | 1022.5 |
| 20260905133504 | 60 | 234 | 0.0 | 0.0 | 0.00 | 0.00 | 0.00 | 38 | 1022.4 |
| 20260905133003 | 60 | 236 | 0.0 | 0.0 | 0.00 | 0.00 | 0.00 | 38 | 1022.3 |
| 20260905132504 | 59 | 236 | 0.0 | 0.0 | 0.00 | 0.00 | 0.00 | 39 | 1022.3 |
| 20260905131503 | 60 | 236 | 0.0 | 0.0 | 0.00 | 0.00 | 0.00 | 38 | 1022.3 |
| 20260905131004 | 60 | 236 | 0.0 | 0.0 | 0.00 | 0.00 | 0.00 | 38 | 1022.1 |
| 20260905130503 | 60 | 236 | 0.0 | 0.0 | 0.00 | 0.00 | 0.00 | 38 | 1022.1 |
| 20260905130004 | 60 | 236 | 0.0 | 0.0 | 0.00 | 0.00 | 0.00 | 38 | 1022.2 |
| 20260905125504 | 60 | 242 | 0.0 | 0.0 | 0.00 | 0.00 | 0.00 | 39 | 1022.1 |
| 20260905125003 | 60 | 220 | 0.0 | 0.0 | 0.00 | 0.00 | 0.00 | 39 | 1022.2 |
| 20260905124504 | 60 | 220 | 0.0 | 0.0 | 0.00 | 0.00 | 0.00 | 39 | 1022.1 |
| 20260905124003 | 61 | 218 | 0.0 | 0.0 | 0.00 | 0.00 | 0.00 | 39 | 1022.1 |
| 20260905123503 | 62 | 217 | 0.0 | 0.0 | 0.00 | 0.00 | 0.00 | 39 | 1022.1 |
| 20260905123004 | 62 | 217 | 0.0 | 0.0 | 0.00 | 0.00 | 0.00 | 39 | 1022.0 |
| 20260905122504 | 61 | 239 | 0.0 | 0.0 | 0.00 | 0.00 | 0.00 | 40 | 1022.0 |
| 20260905122003 | 60 | 239 | 0.0 | 0.0 | 0.00 | 0.00 | 0.00 | 41 | 1022.0 |
| 20260905121504 | 60 | 235 | 0.0 | 0.0 | 0.00 | 0.00 | 0.00 | 40 | 1021.9 |
| 20260905121004 | 60 | 238 | 0.0 | 0.0 | 0.00 | 0.00 | 0.00 | 41 | 1021.9 |
| 20260905120503 | 60 | 227 | 0.0 | 0.0 | 0.00 | 0.00 | 0.00 | 42 | 1021.9 |
| 20260905120003 | 60 | 244 | 0.0 | 0.0 | 0.00 | 0.00 | 0.00 | 41 | 1022.0 |
| 20260905115504 | 60 | 250 | 0.0 | 0.0 | 0.00 | 0.00 | 0.00 | 41 | 1022.0 |
| 20260905115004 | 60 | 250 | 0.0 | 0.0 | 0.00 | 0.00 | 0.00 | 41 | 1021.9 |
| 20260905114504 | 60 | 250 | 0.0 | 0.0 | 0.00 | 0.00 | 0.00 | 41 | 1021.9 |
| 20260905114003 | 60 | 255 | 0.0 | 0.0 | 0.00 | 0.00 | 0.00 | 40 | 1022.0 |
| 20260905113504 | 61 | 255 | 0.0 | 0.0 | 0.00 | 0.00 | 0.00 | 40 | 1022.1 |
| 20260905112504 | 60 | 255 | 0.0 | 0.0 | 0.00 | 0.00 | 0.00 | 41 | 1022.0 |
| 20260905112003 | 59 | 255 | 0.0 | 0.0 | 0.00 | 0.00 | 0.00 | 41 | 1021.7 |
| 20260905111504 | 59 | 248 | 0.0 | 0.0 | 0.00 | 0.00 | 0.00 | 42 | 1021.8 |
| 20260905111003 | 59 | 217 | 0.0 | 0.0 | 0.00 | 0.00 | 0.00 | 41 | 1021.7 |
| 20260905110503 | 59 | 209 | 0.0 | 0.0 | 0.00 | 0.00 | 0.00 | 42 | 1021.7 |
| 20260905105503 | 60 | 209 | 0.0 | 0.0 | 0.00 | 0.00 | 0.00 | 39 | 1021.9 |
| 20260905105004 | 61 | 209 | 0.0 | 0.0 | 0.00 | 0.00 | 0.00 | 38 | 1021.9 |
| 20260905104004 | 60 | 209 | 0.0 | 0.0 | 0.00 | 0.00 | 0.00 | 39 | 1021.9 |
| 20260905103504 | 60 | 229 | 0.0 | 0.0 | 0.00 | 0.00 | 0.00 | 39 | 1021.9 |
| 20260905103003 | 60 | 229 | 0.0 | 0.0 | 0.00 | 0.00 | 0.00 | 38 | 1021.8 |
| 20260905102504 | 60 | 229 | 0.0 | 0.0 | 0.00 | 0.00 | 0.00 | 38 | 1021.8 |
| 20260905102003 | 61 | 229 | 0.0 | 0.0 | 0.00 | 0.00 | 0.00 | 37 | 1021.8 |
| 20260905101003 | 61 | 237 | 0.0 | 0.0 | 0.00 | 0.00 | 0.00 | 37 | 1021.7 |
| 20260905100503 | 61 | 243 | 0.0 | 0.0 | 0.00 | 0.00 | 0.00 | 37 | 1021.8 |
| 20260905100004 | 61 | 244 | 0.0 | 0.0 | 0.00 | 0.00 | 0.00 | 37 | 1021.6 |
| 20260905095004 | 62 | 244 | 0.0 | 0.0 | 0.00 | 0.00 | 0.00 | 36 | 1021.6 |
| 20260905094503 | 62 | 244 | 0.0 | 0.0 | 0.00 | 0.00 | 0.00 | 36 | 1021.6 |
| 20260905094004 | 62 | 233 | 0.0 | 0.0 | 0.00 | 0.00 | 0.00 | 36 | 1021.6 |
| 20260905093003 | 62 | 257 | 0.0 | 1.0 | 0.00 | 0.00 | 0.00 | 35 | 1021.6 |
| 20260905092504 | 63 | 260 | 0.0 | 0.0 | 0.00 | 0.00 | 0.00 | 34 | 1021.7 |
| 20260905092004 | 63 | 246 | 0.0 | 0.0 | 0.00 | 0.00 | 0.00 | 34 | 1021.6 |
| 20260905091503 | 64 | 245 | 0.0 | 0.0 | 0.00 | 0.00 | 0.00 | 34 | 1021.7 |
| 20260905091003 | 64 | 244 | 0.0 | 0.0 | 0.00 | 0.00 | 0.00 | 35 | 1021.7 |
| 20260905090503 | 63 | 243 | 0.0 | 2.0 | 0.00 | 0.00 | 0.00 | 34 | 1021.7 |
| 20260905090004 | 64 | 242 | 0.0 | 0.0 | 0.00 | 0.00 | 0.00 | 34 | 1021.9 |
| 20260905085505 | 64 | 242 | 0.0 | 0.0 | 0.00 | 0.00 | 0.00 | 34 | 1021.9 |
| 20260905085003 | 65 | 248 | 0.0 | 0.0 | 0.00 | 0.00 | 0.00 | 33 | 1021.9 |
| 20260905084504 | 66 | 256 | 0.0 | 0.0 | 0.00 | 0.00 | 0.00 | 33 | 1021.9 |
| 20260905084003 | 66 | 266 | 0.0 | 0.0 | 0.00 | 0.00 | 0.00 | 33 | 1021.9 |
| 20260905083504 | 66 | 267 | 0.0 | 0.0 | 0.00 | 0.00 | 0.00 | 34 | 1021.8 |
| 20260905083004 | 66 | 291 | 0.0 | 1.0 | 0.00 | 0.00 | 0.00 | 33 | 1021.9 |
| 20260905082503 | 66 | 240 | 0.0 | 2.0 | 0.00 | 0.00 | 0.00 | 33 | 1022.0 |
| 20260905082004 | 66 | 224 | 1.0 | 3.0 | 0.00 | 0.00 | 0.00 | 33 | 1021.9 |
| 20260905081003 | 66 | 194 | 0.0 | 1.0 | 0.00 | 0.00 | 0.00 | 33 | 1021.9 |
| 20260905075504 | 68 | 227 | 0.0 | 2.0 | 0.00 | 0.00 | 0.00 | 32 | 1021.9 |
| 20260905075004 | 68 | 227 | 0.0 | 3.0 | 0.00 | 0.00 | 0.00 | 32 | 1021.8 |
| 20260905074004 | 70 | 212 | 1.0 | 3.0 | 0.00 | 0.00 | 0.00 | 31 | 1021.9 |
| 20260905073503 | 70 | 223 | 2.0 | 5.0 | 0.00 | 0.00 | 0.00 | 30 | 1021.7 |
| 20260905073004 | 70 | 222 | 1.0 | 5.0 | 0.00 | 0.00 | 0.00 | 30 | 1021.7 |
| 20260905072504 | 71 | 218 | 1.0 | 5.0 | 0.00 | 0.00 | 0.00 | 30 | 1021.7 |
| 20260905072004 | 71 | 226 | 1.0 | 3.0 | 0.00 | 0.00 | 0.00 | 30 | 1021.7 |
| 20260905071504 | 71 | 228 | 1.0 | 3.0 | 0.00 | 0.00 | 0.00 | 30 | 1021.7 |
| 20260905071004 | 71 | 225 | 1.0 | 3.0 | 0.00 | 0.00 | 0.00 | 30 | 1021.7 |
| 20260905070003 | 71 | 230 | 1.0 | 5.0 | 0.00 | 0.00 | 0.00 | 30 | 1021.7 |
| 20260905065504 | 72 | 233 | 1.0 | 3.0 | 0.00 | 0.00 | 0.00 | 30 | 1021.7 |
| 20260905065004 | 72 | 227 | 4.0 | 9.0 | 0.00 | 0.00 | 0.00 | 30 | 1021.6 |
| 20260905064504 | 72 | 232 | 1.0 | 5.0 | 0.00 | 0.00 | 0.00 | 30 | 1021.6 |
| 20260905064004 | 72 | 219 | 0.0 | 3.0 | 0.00 | 0.00 | 0.00 | 29 | 1021.6 |
| 20260905063504 | 73 | 222 | 0.0 | 3.0 | 0.00 | 0.00 | 0.00 | 29 | 1021.6 |
| 20260905063006 | 73 | 218 | 3.0 | 8.0 | 0.00 | 0.00 | 0.00 | 29 | 1021.5 |
| 20260905062504 | 73 | 224 | 1.0 | 5.0 | 0.00 | 0.00 | 0.00 | 28 | 1021.5 |
| 20260905062004 | 73 | 219 | 1.0 | 8.0 | 0.00 | 0.00 | 0.00 | 28 | 1021.5 |
| 20260905061004 | 73 | 223 | 3.0 | 10.0 | 0.00 | 0.00 | 0.00 | 28 | 1021.4 |
| 20260905060503 | 74 | 220 | 5.0 | 12.0 | 0.00 | 0.00 | 0.00 | 28 | 1021.4 |
| 20260905060003 | 73 | 225 | 4.0 | 12.0 | 0.00 | 0.00 | 0.00 | 28 | 1021.4 |
| 20260905055503 | 73 | 213 | 4.0 | 12.0 | 0.00 | 0.00 | 0.00 | 28 | 1021.4 |
| 20260905055005 | 73 | 212 | 6.0 | 10.0 | 0.00 | 0.00 | 0.00 | 27 | 1021.3 |
| 20260905054503 | 72 | 202 | 4.0 | 8.0 | 0.00 | 0.00 | 0.00 | 27 | 1021.3 |
| 20260905052504 | 73 | 194 | 6.0 | 10.0 | 0.00 | 0.00 | 0.00 | 25 | 1021.5 |
| 20260905052004 | 74 | 186 | 3.0 | 6.0 | 0.00 | 0.00 | 0.00 | 24 | 1021.5 |
| 20260905051504 | 74 | 183 | 1.0 | 6.0 | 0.00 | 0.00 | 0.00 | 24 | 1021.5 |
| 20260905051003 | 74 | 191 | 3.0 | 6.0 | 0.00 | 0.00 | 0.00 | 24 | 1021.5 |
| 20260905050503 | 75 | 205 | 1.0 | 3.0 | 0.00 | 0.00 | 0.00 | 24 | 1021.5 |